User: anonymous   Login
Location: Cambridge (historical)
(38.6883°N, 119.0140°W)
Time: 04:00:58
(UTC+00:00)
Language:

Oscar 11 - Orbit

View from above orbital plane
View from above orbital plane
View from above satellite
View from above satellite

Ground track
Ground track

The orbit data is extracted from the following two-line orbital elements,

1 14781U 84021B   21264.25252974  .00000147  00000-0  23962-4 0  9995
2 14781  97.5985 259.4018 0009725 121.1713 239.0456 14.83326502   131
Epoch (UTC): 21 September 2021 06:03:38
Eccentricity: 0.0009725
inclination: 97.5985°
perigee height: 612 km
apogee height: 625 km
right ascension of ascending node: 259.4018°
argument of perigee: 121.1713°
revolutions per day: 14.83326502
mean anomaly at epoch: 239.0456°
orbit number at epoch: 13

The dashed part of the orbit path shows where the satellite is in the earth's shadow,  

DLR